^^
Your Local Weather - Clay, NY Station Historical Data
Daily Summary for December 21, 2017 Units:  English    Metric   Both
« Previous Day
Next Day »
Daily Weekly Monthly Yearly Custom
  High: Low: Average:
Temperature: 29.3 °F 16.6 °F 23.6 °F
Dew Point: 18.6 °F 11.3 °F 15.5 °F
Humidity: 81% 61% 71%
Wind Speed: 4.0mph 0.0mph 1.1mph
Wind Gust: 8.0mph - -
Wind- - SW
Pressure: 30.29 in 30.07 in -
Precipitation: 0.02 in    
Historical Graphs
 
 
Tabular Data for December 21, 2017
Time Temperature Dew Point Pressure Wind Wind Speed Wind Gust Humidity Rainfall Rate (Hourly) solar
00:04 27.2 °F 17.7 °F 30.07 in WNW 2.0 mph 3.0 mph 67% 0.00 in 0 W/m2
00:10 27.1 °F 17.6 °F 30.07 in WNW 2.0 mph 2.0 mph 67% 0.00 in 0 W/m2
00:16 27.1 °F 17.6 °F 30.07 in NW 2.0 mph 3.0 mph 67% 0.00 in 0 W/m2
00:22 27.1 °F 17.6 °F 30.07 in WNW 3.0 mph 3.0 mph 67% 0.00 in 0 W/m2
00:28 27.0 °F 17.5 °F 30.07 in NW 3.0 mph 4.0 mph 67% 0.00 in 0 W/m2
00:34 27.0 °F 17.5 °F 30.08 in NW 4.0 mph 4.0 mph 67% 0.00 in 0 W/m2
00:40 26.9 °F 17.7 °F 30.07 in North 3.0 mph 4.0 mph 68% 0.00 in 0 W/m2
00:46 26.3 °F 18.2 °F 30.08 in North 4.0 mph 6.0 mph 71% 0.00 in 0 W/m2
00:52 26.0 °F 18.2 °F 30.08 in North 3.0 mph 5.0 mph 72% 0.00 in 0 W/m2
00:56 25.8 °F 18.3 °F 30.08 in NW 3.0 mph 8.0 mph 73% 0.00 in 0 W/m2
01:02 25.4 °F 17.9 °F 30.08 in North 4.0 mph 4.0 mph 73% 0.00 in 0 W/m2
01:08 25.2 °F 17.8 °F 30.09 in NNW 4.0 mph 6.0 mph 73% 0.00 in 0 W/m2
01:14 25.1 °F 18.0 °F 30.09 in NNW 3.0 mph 3.0 mph 74% 0.00 in 0 W/m2
01:20 25.0 °F 17.9 °F 30.09 in NNW 3.0 mph 4.0 mph 74% 0.00 in 0 W/m2
01:24 24.9 °F 17.8 °F 30.09 in NNW 3.0 mph 5.0 mph 74% 0.00 in 0 W/m2
01:30 24.8 °F 17.7 °F 30.09 in NNW 4.0 mph 4.0 mph 74% 0.00 in 0 W/m2
01:36 24.7 °F 17.6 °F 30.09 in NNW 3.0 mph 4.0 mph 74% 0.00 in 0 W/m2
01:40 24.7 °F 17.9 °F 30.09 in North 2.0 mph 2.0 mph 75% 0.00 in 0 W/m2
01:46 24.6 °F 17.5 °F 30.10 in North 3.0 mph 3.0 mph 74% 0.00 in 0 W/m2
01:52 24.4 °F 17.3 °F 30.10 in NNW 3.0 mph 5.0 mph 74% 0.00 in 0 W/m2
01:54 24.4 °F 17.3 °F 30.10 in NNW 3.0 mph 5.0 mph 74% 0.00 in 0 W/m2
02:00 24.4 °F 17.6 °F 30.10 in NNW 2.0 mph 2.0 mph 75% 0.00 in 0 W/m2
02:06 24.3 °F 17.5 °F 30.10 in NW 2.0 mph 5.0 mph 75% 0.00 in 0 W/m2
02:12 24.2 °F 17.4 °F 30.11 in NNW 3.0 mph 4.0 mph 75% 0.00 in 0 W/m2
02:18 24.1 °F 17.3 °F 30.11 in North 3.0 mph 4.0 mph 75% 0.00 in 0 W/m2
02:22 24.0 °F 17.2 °F 30.12 in North 3.0 mph 3.0 mph 75% 0.00 in 0 W/m2
02:28 23.8 °F 16.7 °F 30.12 in NNW 3.0 mph 4.0 mph 74% 0.00 in 0 W/m2
02:34 23.7 °F 16.6 °F 30.12 in North 3.0 mph 4.0 mph 74% 0.00 in 0 W/m2
02:42 23.3 °F 15.9 °F 30.12 in North 4.0 mph 5.0 mph 73% 0.00 in 0 W/m2
02:48 23.1 °F 15.7 °F 30.13 in NNE 3.0 mph 7.0 mph 73% 0.00 in 0 W/m2
02:54 23.1 °F 16.0 °F 30.13 in NNW 3.0 mph 3.0 mph 74% 0.00 in 0 W/m2
03:00 22.9 °F 15.8 °F 30.13 in NW 3.0 mph 4.0 mph 74% 0.00 in 0 W/m2
03:06 22.9 °F 15.5 °F 30.14 in North 3.0 mph 4.0 mph 73% 0.00 in 0 W/m2
03:12 22.8 °F 15.4 °F 30.14 in North 3.0 mph 4.0 mph 73% 0.00 in 0 W/m2
03:18 22.7 °F 15.7 °F 30.15 in NNW 3.0 mph 4.0 mph 74% 0.00 in 0 W/m2
03:24 22.6 °F 15.6 °F 30.15 in NNW 3.0 mph 3.0 mph 74% 0.00 in 0 W/m2
03:26 22.5 °F 15.5 °F 30.15 in North 3.0 mph 4.0 mph 74% 0.00 in 0 W/m2
03:32 22.4 °F 15.4 °F 30.15 in North 2.0 mph 4.0 mph 74% 0.00 in 0 W/m2
03:38 22.2 °F 14.9 °F 30.15 in North 2.0 mph 4.0 mph 73% 0.00 in 0 W/m2
03:44 22.1 °F 14.8 °F 30.15 in North 1.0 mph 2.0 mph 73% 0.00 in 0 W/m2
03:50 22.0 °F 14.7 °F 30.15 in North 2.0 mph 3.0 mph 73% 0.00 in 0 W/m2
03:54 22.0 °F 14.7 °F 30.15 in North 2.0 mph 3.0 mph 73% 0.00 in 0 W/m2
04:00 21.8 °F 14.8 °F 30.15 in North 1.0 mph 1.0 mph 74% 0.00 in 0 W/m2
04:06 21.6 °F 14.3 °F 30.15 in NNE 1.0 mph 4.0 mph 73% 0.00 in 0 W/m2
04:12 21.4 °F 14.1 °F 30.15 in North 1.0 mph 2.0 mph 73% 0.00 in 0 W/m2
04:18 21.3 °F 14.3 °F 30.15 in North 1.0 mph 2.0 mph 74% 0.00 in 0 W/m2
04:24 21.3 °F 14.3 °F 30.15 in NNW 1.0 mph 5.0 mph 74% 0.00 in 0 W/m2
04:30 21.3 °F 14.0 °F 30.16 in NNE 2.0 mph 2.0 mph 73% 0.00 in 0 W/m2
04:36 21.3 °F 14.0 °F 30.16 in NNE 2.0 mph 4.0 mph 73% 0.00 in 0 W/m2
04:42 21.3 °F 14.0 °F 30.17 in North 2.0 mph 2.0 mph 73% 0.00 in 0 W/m2
04:48 21.2 °F 13.9 °F 30.17 in North 1.0 mph 2.0 mph 73% 0.00 in 0 W/m2
04:54 21.1 °F 13.8 °F 30.17 in North 1.0 mph 3.0 mph 73% 0.00 in 0 W/m2
05:00 21.0 °F 13.7 °F 30.17 in North 1.0 mph 2.0 mph 73% 0.00 in 0 W/m2
05:06 20.8 °F 13.8 °F 30.17 in North 1.0 mph 2.0 mph 74% 0.00 in 0 W/m2
05:12 20.6 °F 13.3 °F 30.18 in North 1.0 mph 2.0 mph 73% 0.00 in 0 W/m2
05:18 20.4 °F 13.1 °F 30.17 in North 1.0 mph 4.0 mph 73% 0.00 in 0 W/m2
05:24 20.2 °F 12.6 °F 30.18 in North 1.0 mph 1.0 mph 72% 0.00 in 0 W/m2
05:30 20.0 °F 12.4 °F 30.18 in North 1.0 mph 1.0 mph 72% 0.00 in 0 W/m2
05:36 19.9 °F 12.3 °F 30.18 in North 1.0 mph 1.0 mph 72% 0.00 in 0 W/m2
05:42 19.8 °F 12.5 °F 30.17 in Calm   1.0 mph 73% 0.00 in 0 W/m2
05:46 19.8 °F 12.5 °F 30.17 in Calm   1.0 mph 73% 0.00 in 0 W/m2
05:52 19.7 °F 12.8 °F 30.17 in North 1.0 mph 1.0 mph 74% 0.00 in 0 W/m2
05:58 19.8 °F 12.8 °F 30.18 in Calm   2.0 mph 74% 0.00 in 0 W/m2
06:04 19.7 °F 12.8 °F 30.18 in North 1.0 mph 3.0 mph 74% 0.00 in 0 W/m2
06:10 19.6 °F 12.7 °F 30.19 in North 2.0 mph 2.0 mph 74% 0.00 in 0 W/m2
06:16 19.5 °F 12.9 °F 30.19 in North 1.0 mph 2.0 mph 75% 0.00 in 0 W/m2
06:22 19.4 °F 12.8 °F 30.19 in Calm     75% 0.00 in 0 W/m2
06:24 19.3 °F 12.7 °F 30.20 in Calm     75% 0.00 in 0 W/m2
06:30 19.1 °F 12.5 °F 30.20 in Calm     75% 0.00 in 0 W/m2
06:36 18.9 °F 12.3 °F 30.20 in NNW 1.0 mph 3.0 mph 75% 0.00 in 0 W/m2
06:42 18.7 °F 12.1 °F 30.20 in NNW 2.0 mph 3.0 mph 75% 0.00 in 0 W/m2
06:48 18.6 °F 12.0 °F 30.20 in NNW 3.0 mph 4.0 mph 75% 0.00 in 0 W/m2
06:54 18.4 °F 12.1 °F 30.20 in NNW 2.0 mph 3.0 mph 76% 0.00 in 0 W/m2
07:00 18.2 °F 11.9 °F 30.20 in NNW 2.0 mph 2.0 mph 76% 0.00 in 0 W/m2
07:06 18.1 °F 12.1 °F 30.20 in NNW 1.0 mph 2.0 mph 77% 0.00 in 0 W/m2
07:12 17.9 °F 11.9 °F 30.20 in Calm     77% 0.00 in 0 W/m2
07:18 17.7 °F 11.7 °F 30.20 in Calm     77% 0.00 in 0 W/m2
07:26 17.4 °F 11.7 °F 30.20 in Calm     78% 0.00 in 0 W/m2
07:32 17.2 °F 11.5 °F 30.20 in Calm     78% 0.00 in 5 W/m2
07:38 17.0 °F 11.6 °F 30.20 in Calm     79% 0.00 in 7 W/m2
07:44 16.8 °F 11.4 °F 30.20 in Calm     79% 0.00 in 9 W/m2
07:50 16.7 °F 11.3 °F 30.20 in Calm     79% 0.00 in 11 W/m2
07:54 16.7 °F 11.6 °F 30.20 in Calm     80% 0.00 in 12 W/m2
08:00 16.6 °F 11.5 °F 30.20 in Calm     80% 0.00 in 16 W/m2
08:06 16.6 °F 11.8 °F 30.21 in Calm   2.0 mph 81% 0.00 in 19 W/m2
08:12 16.9 °F 12.1 °F 30.22 in Calm     81% 0.00 in 21 W/m2
08:18 17.1 °F 12.3 °F 30.22 in Calm     81% 0.00 in 25 W/m2
08:24 17.3 °F 12.5 °F 30.22 in Calm   2.0 mph 81% 0.00 in 90 W/m2
08:30 17.5 °F 12.4 °F 30.23 in NNW 1.0 mph 1.0 mph 80% 0.00 in 130 W/m2
08:36 17.9 °F 12.8 °F 30.23 in NNW 1.0 mph 1.0 mph 80% 0.00 in 148 W/m2
08:42 19.5 °F 13.8 °F 30.23 in NNW 1.0 mph 3.0 mph 78% 0.00 in 162 W/m2
08:48 19.5 °F 13.5 °F 30.23 in NNW 1.0 mph 3.0 mph 77% 0.00 in 172 W/m2
08:54 20.1 °F 14.0 °F 30.23 in NNW 1.0 mph 3.0 mph 77% 0.00 in 181 W/m2
09:00 20.5 °F 14.1 °F 30.23 in NNW 1.0 mph 1.0 mph 76% 0.00 in 193 W/m2
09:06 20.5 °F 13.8 °F 30.23 in Calm   1.0 mph 75% 0.00 in 207 W/m2
09:08 20.9 °F 14.2 °F 30.23 in Calm   1.0 mph 75% 0.00 in 214 W/m2
09:14 20.6 °F 13.9 °F 30.24 in Calm   2.0 mph 75% 0.00 in 225 W/m2
09:20 20.8 °F 13.8 °F 30.24 in NE 1.0 mph 3.0 mph 74% 0.00 in 239 W/m2
09:26 20.7 °F 14.0 °F 30.24 in NE 1.0 mph 3.0 mph 75% 0.00 in 251 W/m2
09:32 21.3 °F 14.3 °F 30.24 in North 2.0 mph 3.0 mph 74% 0.00 in 264 W/m2
09:38 21.8 °F 14.8 °F 30.24 in NNE 2.0 mph 3.0 mph 74% 0.00 in 276 W/m2
09:44 21.5 °F 14.5 °F 30.24 in NNE 1.0 mph 2.0 mph 74% 0.00 in 285 W/m2
09:50 21.9 °F 14.6 °F 30.24 in NNE 1.0 mph 1.0 mph 73% 0.00 in 299 W/m2
09:56 21.9 °F 14.3 °F 30.25 in NNE 1.0 mph 1.0 mph 72% 0.00 in 306 W/m2
10:02 22.4 °F 14.4 °F 30.25 in Calm     71% 0.00 in 322 W/m2
10:08 22.4 °F 14.1 °F 30.25 in Calm   1.0 mph 70% 0.00 in 329 W/m2
10:14 22.6 °F 14.3 °F 30.26 in NE 1.0 mph 3.0 mph 70% 0.00 in 336 W/m2
10:20 23.2 °F 15.5 °F 30.26 in NNE 1.0 mph 2.0 mph 72% 0.00 in 346 W/m2
10:26 23.9 °F 15.5 °F 30.26 in NNW 1.0 mph 2.0 mph 70% 0.00 in 352 W/m2
10:38 23.8 °F 15.8 °F 30.25 in NNW 1.0 mph 2.0 mph 71% 0.00 in 369 W/m2
10:44 23.3 °F 15.3 °F 30.25 in NW 1.0 mph 2.0 mph 71% 0.00 in 374 W/m2
10:46 23.3 °F 15.0 °F 30.25 in NW 1.0 mph 2.0 mph 70% 0.00 in 376 W/m2
10:52 24.0 °F 15.6 °F 30.25 in Calm   1.0 mph 70% 0.00 in 381 W/m2
10:58 25.0 °F 15.9 °F 30.26 in Calm   3.0 mph 68% 0.00 in 388 W/m2
11:04 24.9 °F 15.8 °F 30.26 in Calm   4.0 mph 68% 0.00 in 397 W/m2
11:10 24.9 °F 15.8 °F 30.26 in NW 1.0 mph 1.0 mph 68% 0.00 in 411 W/m2
11:16 24.5 °F 16.1 °F 30.26 in Calm   1.0 mph 70% 0.00 in 406 W/m2
11:22 25.4 °F 16.3 °F 30.25 in NW 1.0 mph 2.0 mph 68% 0.00 in 408 W/m2
11:28 25.3 °F 16.2 °F 30.25 in NW 1.0 mph 2.0 mph 68% 0.00 in 413 W/m2
11:32 25.1 °F 15.3 °F 30.25 in Calm   1.0 mph 66% 0.00 in 411 W/m2
11:38 25.5 °F 16.1 °F 30.25 in NW 1.0 mph 2.0 mph 67% 0.00 in 425 W/m2
11:40 25.6 °F 15.5 °F 30.24 in NW 1.0 mph 1.0 mph 65% 0.00 in 431 W/m2
11:46 25.3 °F 15.5 °F 30.24 in Calm   1.0 mph 66% 0.00 in 452 W/m2
11:52 25.6 °F 16.2 °F 30.24 in Calm     67% 0.00 in 431 W/m2
11:58 25.9 °F 15.7 °F 30.24 in NW 1.0 mph 2.0 mph 65% 0.00 in 436 W/m2
12:04 26.3 °F 16.5 °F 30.23 in NW 1.0 mph 2.0 mph 66% 0.00 in 487 W/m2
12:10 26.0 °F 16.2 °F 30.23 in NW 1.0 mph 1.0 mph 66% 0.00 in 179 W/m2
12:16 25.9 °F 16.4 °F 30.23 in NW 1.0 mph 2.0 mph 67% 0.00 in 156 W/m2
12:22 25.6 °F 16.5 °F 30.23 in NNW 2.0 mph 3.0 mph 68% 0.00 in 436 W/m2
12:28 27.1 °F 17.6 °F 30.23 in NNW 2.0 mph 3.0 mph 67% 0.00 in 468 W/m2
12:34 26.5 °F 16.7 °F 30.23 in NNW 2.0 mph 3.0 mph 66% 0.00 in 475 W/m2
12:40 26.1 °F 16.6 °F 30.23 in NNW 2.0 mph 2.0 mph 67% 0.00 in 455 W/m2
12:46 27.3 °F 18.1 °F 30.23 in Calm   4.0 mph 68% 0.00 in 485 W/m2
12:52 27.0 °F 17.1 °F 30.23 in North 1.0 mph 1.0 mph 66% 0.00 in 510 W/m2
12:58 26.7 °F 16.9 °F 30.22 in West 1.0 mph 2.0 mph 66% 0.00 in 527 W/m2
13:04 27.2 °F 16.6 °F 30.22 in NNW 1.0 mph 4.0 mph 64% 0.00 in 304 W/m2
13:10 26.6 °F 16.8 °F 30.22 in NNW 2.0 mph 4.0 mph 66% 0.00 in 232 W/m2
13:16 26.7 °F 16.9 °F 30.22 in North 2.0 mph 4.0 mph 66% 0.00 in 295 W/m2
13:22 27.0 °F 17.1 °F 30.22 in North 3.0 mph 6.0 mph 66% 0.00 in 285 W/m2
13:30 26.5 °F 16.7 °F 30.22 in NNW 2.0 mph 2.0 mph 66% 0.00 in 408 W/m2
13:36 27.3 °F 17.1 °F 30.22 in NNW 1.0 mph 4.0 mph 65% 0.00 in 153 W/m2
13:42 27.3 °F 16.7 °F 30.22 in NNW 2.0 mph 2.0 mph 64% 0.00 in 446 W/m2
13:48 27.8 °F 17.2 °F 30.22 in NNW 1.0 mph 2.0 mph 64% 0.00 in 413 W/m2
13:54 27.8 °F 17.2 °F 30.22 in NNW 1.0 mph 2.0 mph 64% 0.00 in 357 W/m2
14:00 27.3 °F 17.1 °F 30.22 in NNE 1.0 mph 5.0 mph 65% 0.00 in 399 W/m2
14:06 28.0 °F 16.6 °F 30.22 in NNE 1.0 mph 5.0 mph 62% 0.00 in 380 W/m2
14:12 27.9 °F 17.3 °F 30.23 in WNW 1.0 mph 1.0 mph 64% 0.00 in 262 W/m2
14:18 28.0 °F 17.4 °F 30.23 in WNW 1.0 mph 1.0 mph 64% 0.00 in 309 W/m2
14:24 27.9 °F 16.6 °F 30.23 in WNW 1.0 mph 3.0 mph 62% 0.00 in 301 W/m2
14:32 29.1 °F 18.4 °F 30.23 in WNW 1.0 mph 1.0 mph 64% 0.00 in 327 W/m2
14:38 28.5 °F 17.9 °F 30.22 in WNW 1.0 mph 1.0 mph 64% 0.00 in 309 W/m2
14:44 29.3 °F 18.6 °F 30.22 in WNW 1.0 mph 1.0 mph 64% 0.00 in 308 W/m2
14:48 28.7 °F 16.9 °F 30.22 in NNW 1.0 mph 4.0 mph 61% 0.00 in 183 W/m2
14:54 27.7 °F 16.4 °F 30.22 in NNW 2.0 mph 3.0 mph 62% 0.00 in 105 W/m2
15:02 27.3 °F 16.4 °F 30.22 in Calm   1.0 mph 63% 0.00 in 72 W/m2
15:08 27.2 °F 17.0 °F 30.23 in Calm   2.0 mph 65% 0.00 in 60 W/m2
15:14 27.2 °F 17.0 °F 30.23 in Calm   2.0 mph 65% 0.00 in 53 W/m2
15:20 27.1 °F 16.5 °F 30.23 in Calm   1.0 mph 64% 0.00 in 58 W/m2
15:26 27.1 °F 16.9 °F 30.23 in NNW 1.0 mph 2.0 mph 65% 0.00 in 62 W/m2
15:30 27.1 °F 16.9 °F 30.23 in NNW 1.0 mph 1.0 mph 65% 0.00 in 51 W/m2
15:36 27.1 °F 16.9 °F 30.23 in Calm   1.0 mph 65% 0.00 in 40 W/m2
15:42 27.2 °F 17.3 °F 30.23 in Calm     66% 0.00 in 37 W/m2
15:48 27.2 °F 17.0 °F 30.23 in Calm     65% 0.00 in 33 W/m2
15:50 27.2 °F 17.0 °F 30.23 in Calm     65% 0.00 in 33 W/m2
15:56 27.1 °F 16.5 °F 30.23 in Calm   1.0 mph 64% 0.00 in 35 W/m2
16:02 27.0 °F 16.4 °F 30.24 in Calm     64% 0.00 in 32 W/m2
16:08 26.9 °F 16.7 °F 30.24 in Calm   1.0 mph 65% 0.00 in 21 W/m2
16:14 26.9 °F 16.7 °F 30.24 in Calm   2.0 mph 65% 0.00 in 21 W/m2
16:16 26.9 °F 17.0 °F 30.24 in Calm   2.0 mph 66% 0.00 in 21 W/m2
16:22 26.8 °F 16.6 °F 30.24 in North 1.0 mph 1.0 mph 65% 0.00 in 16 W/m2
16:28 26.6 °F 16.4 °F 30.24 in NE 1.0 mph 2.0 mph 65% 0.00 in 11 W/m2
16:34 26.5 °F 16.3 °F 30.23 in NE 1.0 mph 3.0 mph 65% 0.00 in 0 W/m2
16:40 26.4 °F 16.6 °F 30.25 in Calm     66% 0.00 in 0 W/m2
16:46 26.3 °F 16.5 °F 30.25 in Calm     66% 0.00 in 0 W/m2
16:52 26.3 °F 16.5 °F 30.26 in Calm   1.0 mph 66% 0.00 in 0 W/m2
16:58 26.2 °F 16.4 °F 30.26 in Calm   1.0 mph 66% 0.00 in 0 W/m2
17:04 26.2 °F 16.4 °F 30.26 in Calm     66% 0.00 in 0 W/m2
17:10 26.2 °F 16.7 °F 30.26 in Calm     67% 0.00 in 0 W/m2
17:16 26.2 °F 16.7 °F 30.26 in Calm     67% 0.00 in 0 W/m2
17:22 26.2 °F 16.4 °F 30.27 in NE 1.0 mph 2.0 mph 66% 0.00 in 0 W/m2
17:28 26.2 °F 16.7 °F 30.27 in NE 1.0 mph 2.0 mph 67% 0.00 in 0 W/m2
17:34 26.1 °F 16.3 °F 30.28 in NE 1.0 mph 2.0 mph 66% 0.00 in 0 W/m2
17:40 26.1 °F 16.6 °F 30.28 in NE 1.0 mph 1.0 mph 67% 0.00 in 0 W/m2
17:46 26.0 °F 16.9 °F 30.27 in Calm   1.0 mph 68% 0.00 in 0 W/m2
17:52 25.8 °F 16.3 °F 30.27 in NNE 1.0 mph 2.0 mph 67% 0.00 in 0 W/m2
17:58 25.7 °F 16.3 °F 30.27 in NNE 1.0 mph 2.0 mph 67% 0.00 in 0 W/m2
18:04 25.7 °F 16.3 °F 30.27 in NNE 1.0 mph 1.0 mph 67% 0.00 in 0 W/m2
18:06 25.6 °F 16.2 °F 30.27 in Calm   1.0 mph 67% 0.00 in 0 W/m2
18:12 25.5 °F 15.7 °F 30.28 in NNE 1.0 mph 2.0 mph 66% 0.00 in 0 W/m2
18:18 25.4 °F 15.6 °F 30.28 in North 2.0 mph 3.0 mph 66% 0.00 in 0 W/m2
18:20 25.3 °F 15.5 °F 30.28 in North 2.0 mph 2.0 mph 66% 0.00 in 0 W/m2
18:26 25.1 °F 15.7 °F 30.28 in NE 2.0 mph 3.0 mph 67% 0.00 in 0 W/m2
18:32 24.9 °F 15.5 °F 30.28 in NNE 2.0 mph 4.0 mph 67% 0.00 in 0 W/m2
18:38 24.6 °F 15.5 °F 30.28 in NNE 1.0 mph 4.0 mph 68% 0.00 in 0 W/m2
18:44 24.4 °F 15.3 °F 30.28 in NNE 1.0 mph 2.0 mph 68% 0.00 in 0 W/m2
18:50 24.2 °F 15.5 °F 30.29 in NNE 1.0 mph 3.0 mph 69% 0.00 in 0 W/m2
18:56 24.0 °F 15.0 °F 30.28 in NNE 2.0 mph 3.0 mph 68% 0.00 in 0 W/m2
19:02 23.8 °F 15.1 °F 30.28 in North 1.0 mph 1.0 mph 69% 0.00 in 0 W/m2
19:08 23.6 °F 14.9 °F 30.28 in ENE 1.0 mph 1.0 mph 69% 0.00 in 0 W/m2
19:14 23.5 °F 15.1 °F 30.28 in ENE 1.0 mph 1.0 mph 70% 0.00 in 0 W/m2
19:20 23.3 °F 15.0 °F 30.28 in Calm   1.0 mph 70% 0.00 in 0 W/m2
19:26 23.1 °F 14.8 °F 30.28 in Calm   2.0 mph 70% 0.00 in 0 W/m2
19:30 23.0 °F 15.0 °F 30.28 in Calm     71% 0.00 in 0 W/m2
19:36 23.0 °F 15.0 °F 30.28 in Calm     71% 0.00 in 0 W/m2
19:44 23.0 °F 15.0 °F 30.28 in Calm   1.0 mph 71% 0.00 in 0 W/m2
19:50 23.0 °F 15.3 °F 30.28 in Calm     72% 0.00 in 0 W/m2
19:56 22.9 °F 14.9 °F 30.28 in Calm   1.0 mph 71% 0.00 in 0 W/m2
20:02 22.8 °F 15.1 °F 30.28 in Calm   1.0 mph 72% 0.00 in 0 W/m2
20:08 22.8 °F 15.1 °F 30.28 in Calm   2.0 mph 72% 0.00 in 0 W/m2
20:14 22.8 °F 15.1 °F 30.28 in ENE 1.0 mph 1.0 mph 72% 0.00 in 0 W/m2
20:20 22.9 °F 15.2 °F 30.28 in Calm   1.0 mph 72% 0.00 in 0 W/m2
20:26 22.9 °F 15.2 °F 30.28 in NNE 1.0 mph 1.0 mph 72% 0.00 in 0 W/m2
20:32 22.9 °F 15.2 °F 30.27 in Calm   2.0 mph 72% 0.00 in 0 W/m2
20:38 22.9 °F 15.2 °F 30.27 in Calm   2.0 mph 72% 0.00 in 0 W/m2
20:44 22.9 °F 15.2 °F 30.27 in Calm     72% 0.00 in 0 W/m2
20:50 22.9 °F 15.5 °F 30.27 in Calm     73% 0.00 in 0 W/m2
20:56 22.9 °F 15.5 °F 30.27 in Calm   2.0 mph 73% 0.00 in 0 W/m2
21:02 23.0 °F 15.3 °F 30.27 in Calm     72% 0.00 in 0 W/m2
21:08 23.1 °F 15.4 °F 30.27 in NNE 1.0 mph 1.0 mph 72% 0.00 in 0 W/m2
21:14 23.1 °F 15.4 °F 30.27 in Calm   1.0 mph 72% 0.00 in 0 W/m2
21:20 23.1 °F 15.7 °F 30.27 in Calm   2.0 mph 73% 0.00 in 0 W/m2
21:26 23.2 °F 15.5 °F 30.27 in Calm   2.0 mph 72% 0.00 in 0 W/m2
21:44 23.3 °F 15.9 °F 30.26 in Calm   1.0 mph 73% 0.00 in 0 W/m2
21:50 23.4 °F 16.0 °F 30.26 in Calm     73% 0.00 in 0 W/m2
21:56 23.5 °F 16.1 °F 30.26 in Calm     73% 0.00 in 0 W/m2
22:02 23.5 °F 16.1 °F 30.25 in Calm   2.0 mph 73% 0.00 in 0 W/m2
22:08 23.6 °F 16.2 °F 30.25 in Calm   2.0 mph 73% 0.00 in 0 W/m2
22:18 23.7 °F 16.6 °F 30.25 in Calm     74% 0.00 in 0 W/m2
22:24 23.8 °F 16.7 °F 30.25 in ENE 1.0 mph 1.0 mph 74% 0.00 in 0 W/m2
22:30 23.9 °F 16.8 °F 30.25 in Calm     74% 0.00 in 0 W/m2
22:42 24.0 °F 16.9 °F 30.26 in East 1.0 mph 1.0 mph 74% 0.00 in 0 W/m2
22:50 24.1 °F 17.0 °F 30.25 in East 1.0 mph 1.0 mph 74% 0.00 in 0 W/m2
22:56 24.1 °F 17.0 °F 30.25 in Calm   1.0 mph 74% 0.00 in 0 W/m2
23:00 24.2 °F 17.1 °F 30.25 in Calm   2.0 mph 74% 0.00 in 0 W/m2
23:06 24.2 °F 17.1 °F 30.25 in Calm   2.0 mph 74% 0.00 in 0 W/m2
23:12 24.2 °F 17.1 °F 30.26 in East 1.0 mph 1.0 mph 74% 0.00 in 0 W/m2
23:18 24.2 °F 17.1 °F 30.25 in East 1.0 mph 1.0 mph 74% 0.00 in 0 W/m2
23:36 24.2 °F 16.5 °F 30.25 in SE 1.0 mph 3.0 mph 72% 0.00 in 0 W/m2
23:54 24.3 °F 16.2 °F 30.25 in Calm   1.0 mph 71% 0.00 in 0 W/m2
Country Meadow, Clay, NY, USA
Compliments of Weather Underground - 2 mb